Weather History for KAJZ - April, 2014

Change the Weather History Date:

Wednesday, April 9, 2014

  Actual Average (KMTJ) Record (KMTJ)
Temperature  
Mean Temperature 56 °F 47 °F  
Max Temperature 77 °F 61 °F 78 °F (2012)
Min Temperature 35 °F 34 °F 20 °F (2013)
Degree Days  
Heating Degree Days 9 18  
Month to date heating degree days 170  
Since 1 July heating degree days 5626  
Cooling Degree Days 0 0  
Month to date cooling degree days 0  
Year to date cooling degree days 0  
Growing Degree Days 6 (Base 50)    
Moisture  
Dew Point 21 °F    
Average Humidity 30    
Maximum Humidity 60    
Minimum Humidity 9    
Precipitation  
Precipitation 0.00 in 0.03 in 0.24 in (2004)
Month to date precipitation 0.28  
Year to date precipitation 2.53  
Sea Level Pressure  
Sea Level Pressure 30.14 in    
Wind  
Wind Speed 6 mph (NE)    
Max Wind Speed 16 mph    
Max Gust Speed 25 mph    
Visibility 10 miles    
Events      
T = Trace of Precipitation, MM = Missing Value Source: NWS Daily Summary

Daily Weather History Graph

Daily Weather History Graph

Search for Another Location

Airport or City:

Trip Planner

Search our weather history database for the weather conditions in past years. The results will help you decide how hot, cold, wet, or windy it might be!

Date:

Astronomy

Apr. 09, 2014 Rise Set
Actual Time 6:44 AM MDT 7:43 PM MDT
Civil Twilight 6:17 AM MDT 8:10 PM MDT
Nautical Twilight 5:45 AM MDT 8:43 PM MDT
Astronomical Twilight 5:11 AM MDT 9:16 PM MDT
Moon 2:37 PM MDT (4/9) 3:32 AM MDT (4/9)
Length of Visible Light 13h 53m
Length of Day
12h 58m
Waxing Gibbous, 72% of the Moon is Illuminated
Apr 9
Waxing Gibbous
Apr 15
Full
Apr 22
Last Quarter
Apr 29
New
May 6
First Quarter

Hourly Weather History & Observations

Time (MDT) Temp. Windchill Dew Point Humidity Pressure Visibility Wind Dir Wind Speed Gust Speed Precip Events Conditions
12:15 AM 46.0 °F 43.9 °F 25.0 °F 44% 30.26 in 10.0 mi NE 4.6 mph - N/A   Clear
12:35 AM 47.3 °F - 25.3 °F 42% 30.26 in 10.0 mi ENE 10.4 mph - N/A   Clear
12:55 AM 46.2 °F 42.2 °F 25.5 °F 44% 30.26 in 10.0 mi NE 8.1 mph - N/A   Clear
1:15 AM 43.5 °F 40.9 °F 25.3 °F 49% 30.26 in 10.0 mi NE 4.6 mph - N/A   Clear
1:35 AM 42.8 °F 40.1 °F 24.1 °F 48% 30.26 in 10.0 mi ENE 4.6 mph - N/A   Clear
1:55 AM 41.9 °F 40.0 °F 23.4 °F 48% 30.25 in 10.0 mi NNE 3.5 mph - N/A   Clear
2:15 AM 41.9 °F 39.0 °F 23.7 °F 49% 30.25 in 10.0 mi NE 4.6 mph - N/A   Clear
2:35 AM 40.1 °F 36.9 °F 24.6 °F 54% 30.24 in 10.0 mi NE 4.6 mph - N/A   Clear
2:55 AM 41.4 °F 37.6 °F 24.4 °F 51% 30.24 in 10.0 mi NE 5.8 mph - N/A   Clear
3:15 AM 40.8 °F 37.8 °F 24.6 °F 53% 30.23 in 10.0 mi ENE 4.6 mph - N/A   Clear
3:35 AM 40.1 °F - 24.4 °F 54% 30.24 in 10.0 mi Calm Calm - N/A   Clear
3:55 AM 40.5 °F 35.8 °F 23.7 °F 51% 30.23 in 10.0 mi ENE 6.9 mph - N/A   Clear
4:15 AM 40.6 °F 37.5 °F 24.8 °F 53% 30.24 in 10.0 mi ENE 4.6 mph - N/A   Clear
4:35 AM 40.3 °F 34.9 °F 24.8 °F 54% 30.23 in 10.0 mi ENE 8.1 mph - N/A   Clear
4:55 AM 41.9 °F 35.4 °F 25.7 °F 53% 30.23 in 10.0 mi East 11.5 mph - N/A   Clear
5:15 AM 41.5 °F 37.8 °F 24.8 °F 51% 30.23 in 10.0 mi NE 5.8 mph - N/A   Clear
5:35 AM 39.2 °F 33.6 °F 23.9 °F 54% 30.23 in 10.0 mi ENE 8.1 mph - N/A   Clear
5:55 AM 39.6 °F 35.4 °F 25.0 °F 56% 30.23 in 10.0 mi ENE 5.8 mph - N/A   Clear
6:15 AM 37.2 °F - 23.9 °F 59% 30.24 in 10.0 mi Calm Calm - N/A   Clear
6:35 AM 36.0 °F 32.1 °F 23.2 °F 60% 30.24 in 10.0 mi NE 4.6 mph - N/A   Clear
6:55 AM 35.8 °F 33.0 °F 22.6 °F 59% 30.24 in 10.0 mi ENE 3.5 mph - N/A   Clear
7:15 AM 37.9 °F 33.5 °F 23.9 °F 57% 30.24 in 10.0 mi NE 5.8 mph - N/A   Clear
7:35 AM 40.8 °F - 25.5 °F 55% 30.25 in 10.0 mi Calm Calm - N/A   Clear
7:55 AM 41.2 °F - 26.1 °F 55% 30.25 in 10.0 mi Calm Calm - N/A   Clear
8:15 AM 43.3 °F - 26.6 °F 52% 30.25 in 10.0 mi Calm Calm - N/A   Clear
8:35 AM 46.9 °F - 27.0 °F 46% 30.25 in 10.0 mi East 4.6 mph - N/A   Clear
8:55 AM 47.5 °F - 27.3 °F 46% 30.24 in 10.0 mi ESE 3.5 mph - N/A   Clear
9:15 AM 50.0 °F - 27.3 °F 41% 30.24 in 10.0 mi ESE 3.5 mph - N/A   Clear
9:55 AM 54.3 °F - 27.3 °F 35% 30.22 in 10.0 mi ENE 4.6 mph - N/A   Clear
10:15 AM 56.3 °F - 27.7 °F 33% 30.21 in 10.0 mi Calm Calm - N/A   Clear
10:35 AM 58.8 °F - 28.0 °F 31% 30.21 in 10.0 mi East 3.5 mph - N/A   Clear
10:55 AM 60.4 °F - 27.5 °F 29% 30.20 in 10.0 mi ESE 4.6 mph - N/A   Clear
11:15 AM 63.0 °F - 27.7 °F 26% 30.19 in 10.0 mi ESE 4.6 mph - N/A   Clear
11:35 AM 65.3 °F - 26.1 °F 23% 30.18 in 10.0 mi Calm Calm - N/A   Clear
11:55 AM 67.3 °F - 23.4 °F 19% 30.16 in 10.0 mi SSE 3.5 mph - N/A   Clear
12:15 PM 69.1 °F - 21.7 °F 17% 30.15 in 10.0 mi Calm Calm - N/A   Clear
12:35 PM 70.9 °F - 20.1 °F 15% 30.13 in 10.0 mi East 4.6 mph - N/A   Clear
12:55 PM 71.2 °F - 19.2 °F 14% 30.13 in 10.0 mi Calm Calm - N/A   Clear
1:15 PM 72.9 °F - 20.1 °F 14% 30.12 in 10.0 mi Calm Calm - N/A   Clear
1:35 PM 74.3 °F - 19.6 °F 13% 30.11 in 10.0 mi SW 8.1 mph - N/A   Clear
1:55 PM 74.7 °F - 18.5 °F 12% 30.09 in 10.0 mi West 6.9 mph - N/A   Clear
2:15 PM 74.5 °F - 16.5 °F 11% 30.08 in 10.0 mi Calm Calm - N/A   Clear
2:35 PM 75.9 °F - 14.2 °F 10% 30.06 in 10.0 mi West 16.1 mph 20.7 mph N/A   Clear
2:55 PM 75.7 °F - 13.8 °F 10% 30.05 in 10.0 mi SW 16.1 mph 25.3 mph N/A   Clear
3:15 PM 76.5 °F - 14.0 °F 9% 30.04 in 10.0 mi WSW 6.9 mph 23.0 mph N/A   Clear
3:35 PM 75.9 °F - 14.9 °F 10% 30.03 in 10.0 mi WNW 8.1 mph 18.4 mph N/A   Clear
3:55 PM 77.9 °F - 16.9 °F 10% 30.02 in 10.0 mi WNW 8.1 mph 18.4 mph N/A   Clear
4:15 PM 77.0 °F - 16.2 °F 10% 30.02 in 10.0 mi WSW 10.4 mph 17.3 mph N/A   Clear
4:35 PM 77.2 °F - 16.0 °F 10% 30.01 in 10.0 mi WSW 11.5 mph 17.3 mph N/A   Clear
4:55 PM 76.8 °F - 16.3 °F 10% 30.01 in 10.0 mi WNW 12.7 mph 17.3 mph N/A   Clear
5:15 PM 75.9 °F - 16.3 °F 11% 30.01 in 10.0 mi WNW 13.8 mph 18.4 mph N/A   Clear
5:35 PM 74.7 °F - 14.4 °F 10% 30.01 in 10.0 mi NW 12.7 mph 21.9 mph N/A   Clear
5:55 PM 73.4 °F - 13.1 °F 10% 30.00 in 10.0 mi WNW 12.7 mph - N/A   Clear
6:15 PM 73.4 °F - 12.0 °F 10% 30.00 in 10.0 mi West 9.2 mph 16.1 mph N/A   Clear
6:35 PM 72.9 °F - 9.9 °F 9% 30.01 in 10.0 mi West 9.2 mph 17.3 mph N/A   Clear
6:55 PM 72.0 °F - 10.0 °F 9% 30.01 in 10.0 mi WNW 11.5 mph - N/A   Clear
7:15 PM 71.1 °F - 11.3 °F 10% 30.00 in 10.0 mi WNW 11.5 mph - N/A   Clear
7:35 PM 70.7 °F - 11.8 °F 10% 30.00 in 10.0 mi WNW 8.1 mph 12.7 mph N/A   Clear
7:55 PM 69.6 °F - 11.8 °F 11% 30.00 in 10.0 mi WNW 6.9 mph - N/A   Clear
8:15 PM 68.4 °F - 12.2 °F 11% 30.01 in 10.0 mi NW 5.8 mph - N/A   Clear
8:35 PM 65.5 °F - 14.4 °F 14% 30.01 in 10.0 mi NNW 3.5 mph - N/A   Clear
8:55 PM 59.5 °F - 14.4 °F 17% 30.02 in 10.0 mi SE 5.8 mph - N/A   Clear
9:15 PM 63.1 °F - 13.3 °F 14% 30.03 in 10.0 mi Calm Calm - N/A   Clear
9:35 PM 61.2 °F - 15.6 °F 17% 30.03 in 10.0 mi East 3.5 mph - N/A   Clear
9:55 PM 56.8 °F - 19.8 °F 24% 30.03 in 10.0 mi NE 4.6 mph - N/A   Clear
10:15 PM 54.9 °F - 19.9 °F 26% 30.03 in 10.0 mi NE 4.6 mph - N/A   Clear
10:35 PM 55.8 °F - 17.1 °F 22% 30.03 in 10.0 mi ESE 3.5 mph - N/A   Clear
10:55 PM 54.0 °F - 18.0 °F 24% 30.03 in 10.0 mi East 8.1 mph - N/A   Clear
11:15 PM 54.0 °F - 18.5 °F 25% 30.03 in 10.0 mi NE 5.8 mph - N/A   Clear
11:35 PM 51.3 °F - 21.6 °F 31% 30.04 in 10.0 mi NNE 6.9 mph - N/A   Clear
11:55 PM 51.4 °F - 22.1 °F 32% 30.04 in 10.0 mi ENE 5.8 mph - N/A   Clear